Theta_e
341 343 348 348 349 350 350 349 349 348 345 343 343 342 341 341 340 341 343 343 345 344 346 347 347 345 342 342 341 340 340 339 339 340 340 340 341 342 342 343 343 342 345
343 344 346 350 350 350 350 350 349 348 345 343 342 342 341 340 339 339 341 342 343 343 346 347 345 342 340 338 336 337 337 337 336 339 340 340 338 338 339 338 341 339 342
343 344 346 348 351 351 349 350 348 347 343 342 341 340 339 338 338 338 338 340 342 342 345 345 342 340 338 336 335 334 335 334 335 337 337 332 334 336 337 336 336 337 338
344 345 346 347 351 350 349 350 348 347 343 342 340 338 337 336 335 335 335 338 339 340 344 343 341 338 336 334 333 334 334 333 335 335 331 331 331 335 336 335 335 335 334
344 345 346 347 351 350 349 348 348 347 345 342 341 339 337 334 332 332 332 335 337 339 341 339 336 333 332 332 333 333 333 332 334 331 331 332 332 334 335 334 333 333 334
345 346 345 348 351 350 349 348 348 347 345 342 341 340 339 335 331 330 330 332 334 336 337 334 331 329 330 331 331 331 331 333 333 330 330 332 331 334 334 333 333 333 334
344 345 345 346 348 349 349 348 348 347 345 343 342 340 339 336 331 329 329 330 331 332 332 328 327 327 327 328 329 328 328 332 331 333 334 335 335 337 337 335 334 333 334
344 345 344 340 342 344 346 347 347 347 345 343 341 340 338 336 332 328 328 328 328 329 329 326 324 324 326 326 327 326 326 328 327 328 328 329 333 335 335 335 335 334 334
344 344 345 346 343 338 341 341 343 344 344 343 342 341 339 337 335 333 330 327 326 327 326 323 321 321 324 325 326 325 327 326 325 325 324 326 330 330 330 330 331 331 331
344 343 344 345 345 345 347 335 338 340 341 341 339 336 333 333 332 330 328 328 326 325 323 321 320 321 323 324 323 323 325 327 328 329 330 330 332 334 333 332 330 329 330
341 343 344 343 344 345 345 340 334 335 336 335 334 329 328 334 332 330 326 327 325 323 322 321 320 321 320 319 319 322 323 323 324 325 327 328 330 332 332 332 330 329 327
337 341 343 343 343 344 343 344 345 344 344 343 340 337 337 335 334 330 324 324 323 322 320 319 316 315 318 320 320 320 320 320 321 321 324 327 328 329 328 327 326 325 323
337 339 341 343 344 344 343 341 345 345 343 343 341 340 338 334 332 330 325 322 322 319 318 317 316 315 317 317 318 317 316 317 318 317 317 322 323 325 325 324 323 322 322
335 336 338 337 331 337 338 341 344 345 344 342 341 341 336 334 332 330 326 320 320 321 320 319 315 314 315 315 314 313 312 312 314 313 312 316 320 321 323 322 321 320 319
331 333 331 331 327 328 336 334 337 344 342 343 342 341 339 335 330 329 326 322 319 319 320 317 314 313 310 308 309 308 306 307 309 308 309 311 316 318 320 320 319 317 316
329 329 327 325 328 327 330 335 335 337 341 342 342 340 338 338 334 327 327 325 321 318 319 315 309 305 302 303 302 300 299 300 302 303 305 308 312 313 314 315 315 315 315
327 327 323 323 324 325 327 329 334 337 338 341 340 340 339 338 335 330 326 324 319 318 316 310 305 300 298 298 298 296 296 296 295 296 298 303 304 306 308 310 311 312 312
324 321 321 317 319 322 324 326 330 334 335 338 339 338 338 337 333 330 322 320 316 312 312 307 304 297 296 296 296 295 294 294 294 294 294 296 298 299 302 305 307 308 308
319 318 317 316 317 319 320 322 326 330 330 332 333 333 332 329 327 325 321 318 317 312 313 307 300 296 293 294 294 294 293 293 292 292 292 292 292 294 296 299 300 302 304
314 313 313 313 315 317 318 319 320 323 324 322 322 323 326 325 324 323 318 315 314 310 307 304 297 294 293 293 291 291 291 292 292 292 291 290 291 291 291 292 294 297 299
311 310 310 311 313 316 316 315 314 314 315 312 313 315 318 320 319 318 314 311 311 308 305 302 294 292 292 293 291 289 289 290 290 290 291 290 290 289 290 290 291 291 293
307 308 309 310 312 315 315 315 315 315 313 314 308 308 311 314 315 315 312 310 310 308 303 299 294 292 293 294 294 291 287 288 288 289 290 289 289 289 288 288 288 289 291
306 307 308 309 311 314 315 315 312 310 307 302 302 303 304 308 309 311 310 307 307 304 300 298 297 298 293 294 296 299 292 292 287 287 287 288 288 288 288 287 287 287 288
307 308 308 309 310 313 314 312 310 311 310 307 304 304 300 302 303 305 303 302 301 303 301 300 300 301 297 294 295 295 295 297 292 284 286 287 287 287 288 286 286 286 287
306 306 307 308 309 311 313 312 312 313 314 307 307 299 297 297 298 300 300 298 300 302 304 305 302 302 300 299 297 292 291 291 294 289 284 283 286 287 288 287 287 286 286
305 305 306 307 308 310 311 311 312 312 309 301 302 300 295 295 295 294 294 296 300 302 304 305 302 299 300 300 298 294 291 290 288 288 286 285 285 285 286 286 286 287 287
Wind_Speed
12 12 10 9 9 12 12 14 14 14 13 15 16 16 15 15 15 15 15 14 16 17 14 20 21 21 20 20 19 19 19 21 20 21 22 21 22 21 23 22 21 20 23
13 13 10 9 9 12 13 13 13 13 14 15 16 15 15 15 15 15 15 14 15 16 16 20 21 20 20 19 19 19 19 20 18 13 17 21 22 23 23 22 20 19 23
14 13 13 10 10 12 12 12 13 13 14 15 15 15 15 15 15 15 15 14 13 16 17 19 20 19 19 18 19 19 19 19 16 12 13 15 18 22 23 23 22 23 23
13 12 13 10 12 13 13 12 13 13 14 15 14 15 15 16 15 15 15 14 14 15 18 19 19 18 18 19 19 19 20 18 13 12 13 15 17 22 23 23 24 24 23
12 11 12 11 13 13 13 12 14 12 13 14 15 15 16 16 15 16 16 15 14 16 17 18 19 18 19 19 19 19 19 16 11 16 16 15 14 19 23 24 23 24 22
12 11 12 11 14 14 13 14 14 14 14 15 15 15 15 16 15 16 17 16 16 16 18 19 19 19 19 19 19 19 18 13 13 16 16 17 16 20 22 23 23 22 21
12 11 13 10 11 13 13 14 15 14 14 15 15 14 15 15 16 16 17 17 17 17 19 19 20 20 19 20 19 19 17 13 15 16 16 16 15 22 22 21 22 21 22
12 11 12 9 9 11 13 13 14 14 14 14 15 14 15 16 16 17 17 17 17 19 18 20 20 20 19 20 20 18 13 12 14 15 15 14 18 23 24 24 25 25 25
12 11 11 11 10 7 9 10 11 13 14 14 13 13 13 14 15 15 15 17 18 18 18 19 20 20 19 20 20 18 13 11 15 12 14 11 18 20 21 22 23 24 25
11 12 12 11 11 11 10 8 10 11 11 11 11 11 12 12 13 14 14 16 18 19 18 19 20 20 20 19 18 14 10 16 16 15 12 11 21 24 23 23 22 23 25
10 12 12 12 12 11 11 10 9 10 11 12 11 10 11 10 11 11 13 17 18 19 19 20 20 20 20 19 17 12 12 10 13 11 9 19 22 23 24 25 27 27 27
15 14 12 13 12 11 8 12 12 11 10 11 11 12 7 9 9 11 11 15 17 18 19 18 17 13 9 9 8 10 9 12 12 11 9 19 23 23 23 24 25 25 25
16 13 13 12 11 10 9 5 4 6 7 7 12 12 8 6 8 9 8 7 9 12 9 11 9 7 9 8 8 9 11 11 9 9 13 18 20 21 23 24 23 23 24
16 14 13 11 8 7 3 6 8 7 7 7 9 12 10 6 5 5 6 6 5 5 10 8 7 10 10 11 11 11 11 9 8 8 12 15 19 20 21 21 22 23 22
15 14 13 11 9 7 9 5 4 8 8 10 10 12 10 10 7 8 6 7 6 6 7 10 9 9 10 10 10 12 12 11 11 8 8 14 16 19 20 21 22 22 21
15 16 14 13 12 10 9 9 7 4 8 9 9 10 13 10 9 8 8 8 8 5 7 7 10 7 8 8 11 11 11 10 10 10 9 10 18 20 20 21 21 20 20
15 15 15 14 12 11 11 9 8 7 7 7 10 14 15 13 13 13 7 9 8 6 11 10 12 9 8 7 11 10 9 10 9 9 7 7 12 19 19 19 19 20 19
16 17 15 11 12 12 11 9 8 8 8 7 7 9 15 15 14 13 8 8 8 6 8 8 11 9 7 7 9 8 8 8 9 9 8 6 7 8 14 18 19 18 18
17 16 16 15 15 14 12 9 10 10 7 7 6 7 11 11 12 10 9 9 12 8 9 10 9 9 8 7 9 8 7 7 8 8 9 9 8 7 7 16 18 16 16
17 16 15 13 15 14 9 8 7 7 7 4 4 4 8 8 12 11 8 11 11 9 7 9 11 9 7 11 10 8 7 6 6 6 7 6 7 8 7 7 7 9 15
17 17 18 17 16 12 10 9 8 8 6 3 3 5 6 8 11 12 9 11 10 11 12 12 11 15 8 12 10 8 6 6 6 5 4 5 6 6 7 6 4 4 6
20 19 19 19 18 15 11 10 6 8 6 5 4 5 4 7 9 11 13 12 13 10 12 14 14 10 7 12 7 7 5 3 3 3 3 4 5 5 6 7 7 7 6
19 20 19 20 19 17 16 10 6 6 3 3 5 4 4 6 8 10 12 11 13 11 12 14 14 15 11 11 13 3 5 5 8 4 5 4 5 4 5 6 7 6 5
20 18 19 18 18 17 18 14 17 11 9 7 6 6 5 6 7 8 10 12 12 9 11 13 12 12 13 12 6 5 4 7 6 6 5 5 4 5 5 4 4 4 4
14 17 18 19 19 18 18 17 14 14 10 7 7 8 6 5 5 8 10 11 11 8 11 14 14 13 10 10 8 5 4 3 3 4 6 7 5 5 4 4 3 3 3
10 14 14 17 19 19 19 20 19 18 13 9 9 9 6 5 5 7 7 10 11 9 12 12 13 13 11 9 8 6 5 5 6 4 4 9 7 6 5 4 4 3 1
Wind_Direction
212 185 194 180 157 129 122 114 108 103 106 99 97 94 89 85 83 81 81 76 74 78 83 86 82 77 75 70 68 66 66 66 66 68 62 62 59 54 51 43 46 49 48
162 176 180 181 149 128 121 120 110 110 102 98 96 94 92 88 87 87 83 81 84 83 82 84 81 79 74 71 70 69 68 67 62 51 86 75 62 59 57 55 53 53 48
159 164 172 162 145 133 132 119 111 105 106 99 97 96 94 91 87 86 87 88 91 91 87 86 86 81 78 74 73 73 72 69 66 50 71 73 65 61 60 57 56 56 53
152 157 161 149 145 138 138 129 121 116 109 106 101 98 91 88 87 89 89 90 89 92 88 89 85 82 78 76 76 75 70 66 56 64 68 69 70 65 63 62 59 56 57
153 157 144 148 143 142 139 137 124 121 115 111 105 99 95 91 89 88 88 90 89 89 88 85 83 80 80 79 77 75 71 69 66 75 68 68 69 65 67 62 63 61 57
156 158 142 149 148 146 145 142 133 132 127 119 109 105 101 99 98 95 93 93 92 90 88 85 85 82 82 80 78 74 73 74 76 74 77 73 66 70 66 66 64 63 60
161 158 160 157 152 149 151 151 142 138 128 122 114 111 107 102 99 98 97 96 94 92 90 89 86 86 84 81 78 74 68 56 73 68 67 65 73 73 72 73 68 68 65
163 162 159 162 159 159 156 151 146 140 131 128 126 118 109 105 101 97 98 97 96 94 95 92 90 90 88 84 77 71 49 70 75 75 69 62 61 61 63 59 62 61 60
166 169 170 172 168 151 153 153 149 144 140 137 129 118 106 102 101 100 98 97 98 98 97 95 92 92 92 86 79 70 58 60 76 71 71 70 66 68 64 62 61 60 58
176 179 176 175 174 170 163 154 152 150 141 137 126 119 107 99 101 101 102 100 101 100 101 100 96 94 90 82 72 63 67 66 65 65 60 66 69 69 67 67 68 66 66
184 189 183 180 182 176 170 160 157 158 153 139 136 129 149 126 121 117 99 108 107 107 106 104 100 96 91 80 72 64 65 75 68 62 59 66 71 71 71 69 68 67 65
187 189 189 187 184 183 175 167 174 173 174 170 165 162 146 140 124 112 104 110 110 105 105 105 103 104 106 102 91 76 79 81 72 64 58 68 72 71 72 68 65 65 63
190 186 192 190 187 193 180 170 190 183 180 177 177 166 152 135 143 136 130 125 124 125 118 115 112 93 98 99 93 92 91 86 82 70 43 61 74 76 77 74 73 71 67
191 191 185 185 184 189 181 188 197 190 184 187 184 174 161 155 152 149 143 139 141 125 126 116 104 103 97 93 94 93 91 93 90 83 54 47 67 73 75 74 71 67 63
198 189 188 188 184 193 195 199 208 209 190 192 184 186 181 172 158 152 146 145 136 136 133 123 119 109 99 96 96 95 93 94 93 91 75 50 71 76 74 71 69 69 66
198 194 188 195 197 189 198 207 206 215 215 207 184 187 192 178 171 160 161 155 143 139 131 123 115 106 101 103 96 92 93 95 97 97 89 68 67 74 75 74 73 73 71
202 195 195 197 196 201 202 208 218 212 217 221 203 187 193 184 182 169 158 155 147 139 127 124 111 106 103 106 102 98 96 94 95 99 101 89 80 66 72 77 74 71 70
203 202 198 195 201 204 208 208 214 218 217 220 198 199 187 186 179 171 153 152 137 143 147 133 130 118 117 120 116 108 102 97 93 89 90 90 84 85 71 72 73 70 68
209 204 203 200 203 204 209 211 216 218 217 216 211 200 184 167 164 156 153 152 151 144 160 146 127 124 128 122 116 110 103 100 96 93 90 86 90 94 91 74 68 65 66
210 209 205 200 205 201 201 206 211 213 216 199 193 206 181 165 159 152 152 152 149 142 149 149 133 124 134 129 119 108 100 97 96 94 94 94 94 92 88 88 83 65 58
209 207 205 200 201 196 194 190 207 207 203 194 197 188 179 169 160 155 153 153 155 160 153 157 136 132 136 137 126 107 93 90 96 102 117 116 107 96 93 88 85 76 64
206 207 205 206 200 198 200 199 194 190 207 201 182 194 178 171 166 163 158 163 161 157 151 156 155 142 148 174 153 135 155 145 121 123 134 137 131 119 103 89 83 70 60
211 208 207 203 201 199 199 189 179 158 160 165 198 190 190 177 164 170 167 159 164 164 163 168 167 162 161 187 191 158 164 183 148 167 175 172 167 146 124 102 78 70 63
212 207 207 204 203 203 196 191 196 198 190 193 177 179 172 189 161 174 163 161 162 165 170 178 178 171 165 176 191 234 274 131 184 167 194 188 188 175 153 118 103 81 62
212 207 204 201 202 199 199 202 200 208 204 172 170 169 162 184 158 169 167 162 165 178 182 182 179 182 184 178 195 161 182 174 185 150 164 177 196 193 170 155 153 118 74
206 199 203 207 208 201 199 205 206 205 188 164 179 181 170 176 174 178 165 173 176 181 185 185 183 184 185 189 191 187 182 186 177 161 135 164 182 177 178 186 190 179 91